GW5226 Weather Reports


time (UTC)temp
F
wind
direction
speed
knots
gust
knots
rain 1hr
in
rain 24hr
in
rain mn
in
humidity
%
barometer
mb
20260504173504 64 324 7.0 12.2 0.00 0.00 0.00 32 951.0
20260504173003 64 304 7.0 14.8 0.00 0.00 0.00 32 951.1
20260504172001 63 327 6.1 11.3 0.00 0.00 0.00 34 951.1
20260504171501 63 5 7.0 12.2 0.00 0.00 0.00 33 951.1
20260504171001 63 287 7.0 12.2 0.00 0.00 0.00 33 951.2
20260504170459 63 304 6.1 11.3 0.00 0.00 0.00 33 951.1
20260504150932 62 67 5.2 12.2 0.00 0.00 0.00 39 949.7
20260504150704 62 31 5.2 9.6 0.00 0.00 0.00 39 949.8
20260504140921 60 24 5.2 12.2 0.00 0.00 0.00 45 949.2
20260504140421 60 76 4.3 12.2 0.00 0.00 0.00 48 949.2
20260504140138 60 11 4.3 9.6 0.00 0.00 0.00 51 949.2
20260504130404 56 307 4.3 8.7 0.00 0.00 0.00 61 948.5
20260504110608 51 174 1.7 5.2 0.00 0.00 0.00 62 947.3
20260504100336 53 154 0.9 3.5 0.00 0.00 0.00 58 948.0
20260504081817 54 203 2.6 6.1 0.00 0.00 0.00 49 948.8
20260504081317 54 200 2.6 7.0 0.00 0.00 0.00 49 948.8
20260504080317 54 177 1.7 5.2 0.00 0.00 0.00 48 948.9
20260504070302 52 0 0.9 2.6 0.00 0.00 0.00 53 949.8
20260504050218 55 224 0.9 2.6 0.00 0.00 0.00 46 951.4
20260504044708 55 282 0.0 3.5 0.00 0.00 0.00 45 951.5
20260504043707 56 0 0.0 2.6 0.00 0.00 0.00 45 951.6
20260504043203 56 0 0.9 2.6 0.00 0.00 0.00 45 951.7
20260504042158 56 0 0.9 2.6 0.00 0.00 0.00 45 951.9
20260504041658 56 0 0.9 2.6 0.00 0.00 0.00 44 952.0
20260504041159 56 201 0.9 3.5 0.00 0.00 0.00 44 952.0
20260504040659 56 235 0.9 3.5 0.00 0.00 0.00 44 952.2
20260504040159 56 224 0.0 2.6 0.00 0.00 0.00 44 952.2
20260504035658 56 0 0.0 2.6 0.00 0.00 0.00 44 952.2
20260504035158 56 252 0.0 2.6 0.00 0.00 0.00 44 952.3
20260504034658 57 249 0.0 2.6 0.00 0.00 0.00 45 952.4
20260504034155 57 65 0.9 3.5 0.00 0.00 0.00 44 952.4
20260504033655 57 193 0.9 3.5 0.00 0.00 0.00 45 952.5
20260504032653 57 200 0.0 1.7 0.00 0.00 0.00 44 952.7
20260504032153 57 242 0.0 2.6 0.00 0.00 0.00 43 952.8
20260504031653 57 0 0.9 2.6 0.00 0.00 0.00 43 952.8
20260504031147 57 0 0.0 2.6 0.00 0.00 0.00 43 952.9
20260504030643 57 0 0.9 2.6 0.00 0.00 0.00 43 953.0
20260504025644 58 205 0.9 2.6 0.00 0.00 0.00 44 953.1
20260504024644 58 294 0.0 3.5 0.00 0.00 0.00 44 953.2
20260504024144 58 0 0.0 1.7 0.00 0.00 0.00 43 953.3
20260504023644 58 0 0.0 3.5 0.00 0.00 0.00 43 953.3
20260504022641 59 36 0.0 1.7 0.00 0.00 0.00 42 953.2
20260504022139 60 227 0.0 1.7 0.00 0.00 0.00 42 953.3
20260504021635 60 347 0.0 1.7 0.00 0.00 0.00 41 953.3
20260504020629 60 331 0.0 1.7 0.00 0.00 0.00 41 953.2
20260504020129 61 197 0.0 1.7 0.00 0.00 0.00 41 953.2
20260504015635 61 0 0.0 1.7 0.00 0.00 0.00 40 953.2
20260504015126 62 120 0.0 2.6 0.00 0.00 0.00 40 953.3
20260504014627 62 331 0.0 2.6 0.00 0.00 0.00 40 953.4
20260504014127 63 298 0.9 2.6 0.00 0.00 0.00 39 953.4
20260504013626 63 299 0.9 1.7 0.00 0.00 0.00 39 953.3
20260504013126 64 0 0.0 1.7 0.00 0.00 0.00 39 953.4
20260504012626 65 0 0.0 1.7 0.00 0.00 0.00 38 953.5
20260504012127 66 0 0.0 1.7 0.00 0.00 0.00 37 953.4
20260504011127 67 0 0.9 2.6 0.00 0.00 0.00 36 953.4
20260504010627 68 264 0.9 2.6 0.00 0.00 0.00 35 953.4
20260504010127 69 0 0.9 4.3 0.00 0.00 0.00 33 953.4
20260504005626 69 100 0.9 4.3 0.00 0.00 0.00 33 953.5
20260504005127 70 0 0.9 3.5 0.00 0.00 0.00 32 953.5
20260504004623 70 298 0.9 4.3 0.00 0.00 0.00 32 953.5
20260504004124 71 275 0.9 4.3 0.00 0.00 0.00 32 953.5
20260504003621 71 112 0.9 3.5 0.00 0.00 0.00 32 953.5
20260504003118 71 177 0.9 3.5 0.00 0.00 0.00 32 953.5
20260504002618 71 0 0.9 2.6 0.00 0.00 0.00 32 953.5
20260504002118 71 187 1.7 6.1 0.00 0.00 0.00 31 953.5
20260504001618 71 135 1.7 6.1 0.00 0.00 0.00 30 953.5
20260504001119 72 251 1.7 7.8 0.00 0.00 0.00 30 953.6
20260504000619 72 326 2.6 7.8 0.00 0.00 0.00 29 953.6
20260504000119 72 299 1.7 7.0 0.00 0.00 0.00 29 953.7
20260503235619 72 171 2.6 7.8 0.00 0.00 0.00 30 953.7
20260503234619 72 295 2.6 9.6 0.00 0.00 0.00 29 953.8
20260503234114 72 276 2.6 9.6 0.00 0.00 0.00 27 953.8
20260503233113 72 307 3.5 7.8 0.00 0.00 0.00 29 953.9
20260503232613 73 301 2.6 7.8 0.00 0.00 0.00 28 954.0
20260503232115 73 310 1.7 7.0 0.00 0.00 0.00 29 954.0
20260503231614 73 47 1.7 5.2 0.00 0.00 0.00 30 954.0
20260503231114 73 322 1.7 5.2 0.00 0.00 0.00 31 954.1
20260503230613 73 0 1.7 9.6 0.00 0.00 0.00 30 954.2
20260503230114 73 189 2.6 9.6 0.00 0.00 0.00 29 954.3
20260503225614 72 299 3.5 7.8 0.00 0.00 0.00 29 954.3
20260503225114 73 325 4.3 10.4 0.00 0.00 0.00 28 954.3
20260503224613 73 312 4.3 11.3 0.00 0.00 0.00 28 954.4
20260503224115 73 290 3.5 11.3 0.00 0.00 0.00 29 954.4
20260503222612 73 57 3.5 7.8 0.00 0.00 0.00 28 954.5
20260503222108 73 309 3.5 7.8 0.00 0.00 0.00 29 954.6
20260503221109 73 309 3.5 8.7 0.00 0.00 0.00 28 954.5
20260503220608 73 318 3.5 9.6 0.00 0.00 0.00 30 954.6
20260503220109 73 236 3.5 9.6 0.00 0.00 0.00 29 954.8
20260503215606 73 289 4.3 10.4 0.00 0.00 0.00 28 954.7
20260503215105 73 152 3.5 10.4 0.00 0.00 0.00 29 954.8
20260503214606 73 323 3.5 10.4 0.00 0.00 0.00 29 954.8
20260503214105 73 318 4.3 10.4 0.00 0.00 0.00 29 955.0
20260503213606 73 300 3.5 8.7 0.00 0.00 0.00 30 955.0
20260503213106 73 287 3.5 7.8 0.00 0.00 0.00 29 955.0
20260503212607 73 304 3.5 7.8 0.00 0.00 0.00 30 955.1
20260503212103 73 261 3.5 7.8 0.00 0.00 0.00 29 955.2
20260503211600 72 318 4.3 8.7 0.00 0.00 0.00 30 955.2
20260503211100 72 308 3.5 8.7 0.00 0.00 0.00 29 955.3
20260503210557 72 309 3.5 9.6 0.00 0.00 0.00 30 955.3
20260503210107 72 302 4.3 9.6 0.00 0.00 0.00 31 955.5
20260503205551 72 318 4.3 9.6 0.00 0.00 0.00 29 955.6
20260503205051 72 286 5.2 9.6 0.00 0.00 0.00 30 955.6
20260503204552 72 297 5.2 9.6 0.00 0.00 0.00 30 955.8
20260503204052 72 301 5.2 11.3 0.00 0.00 0.00 29 955.8
20260503203552 72 35 5.2 11.3 0.00 0.00 0.00 31 955.9
20260503203052 72 303 4.3 7.8 0.00 0.00 0.00 30 955.9
20260503202552 72 266 4.3 9.6 0.00 0.00 0.00 32 956.0
20260503202051 72 241 4.3 9.6 0.00 0.00 0.00 32 956.1
20260503201551 72 323 4.3 9.6 0.00 0.00 0.00 32 956.1
20260503200548 72 240 4.3 7.8 0.00 0.00 0.00 32 956.1
20260503195550 71 17 4.3 7.8 0.00 0.00 0.00 31 956.3
20260503195046 71 314 4.3 10.4 0.00 0.00 0.00 30 956.4
20260503194546 71 284 5.2 11.3 0.00 0.00 0.00 31 956.4
20260503194043 71 304 5.2 11.3 0.00 0.00 0.00 31 956.4
20260503193543 71 282 5.2 11.3 0.00 0.00 0.00 32 956.4
20260503193043 71 317 5.2 9.6 0.00 0.00 0.00 33 956.4
20260503192544 71 19 4.3 8.7 0.00 0.00 0.00 34 956.5
20260503192041 71 331 4.3 7.8 0.00 0.00 0.00 33 956.5
20260503191025 70 331 6.1 12.2 0.00 0.00 0.00 33 956.7
20260503190524 71 322 5.2 12.2 0.00 0.00 0.00 33 956.7
20260503190248 71 316 4.3 9.6 0.00 0.00 0.00 33 956.8
20260503185525 70 327 5.2 9.6 0.00 0.00 0.00 33 956.8
20260503185024 70 325 5.2 11.3 0.00 0.00 0.00 33 956.9
20260503184525 70 324 6.1 11.3 0.00 0.00 0.00 34 957.0
20260503184025 71 333 5.2 11.3 0.00 0.00 0.00 34 956.9
20260503183525 71 290 4.3 7.8 0.00 0.00 0.00 34 957.0
20260503183023 70 282 4.3 7.8 0.00 0.00 0.00 31 957.1
20260503182741 70 341 4.3 10.4 0.00 0.00 0.00 32 957.2
20260503182251 70 312 5.2 10.4 0.00 0.00 0.00 32 957.3
20260503181745 70 298 6.1 10.4 0.00 0.00 0.00 30 957.4
20260503181020 70 35 5.2 10.4 0.00 0.00 0.00 33 957.4
20260503180520 70 343 5.2 9.6 0.00 0.00 0.00 35 957.3
20260503180020 70 254 4.3 9.6 0.00 0.00 0.00 34 957.3
20260503175521 70 265 4.3 9.6 0.00 0.00 0.00 33 957.4
20260503175034 70 316 5.2 9.6 0.00 0.00 0.00 34 957.5
20260503174521 70 357 5.2 9.6 0.00 0.00 0.00 34 957.5
20260503174021 70 320 5.2 9.6 0.00 0.00 0.00 35 957.5